| time (UTC) | temp C | wind direction | speed KPH | gust KPH | rain 1hr cm | rain 24hr cm | rain mn cm | humidity % | barometer mb |
| 20260504044540 | 8 | 298 | 0.0 | 0.0 | 0.00 | 0.00 | 0.00 | 71 | 1006.2 |
| 20260504043034 | 8 | 298 | 0.0 | 0.0 | 0.00 | 0.00 | 0.00 | 72 | 1006.5 |
| 20260504041528 | 8 | 298 | 0.0 | 0.0 | 0.00 | 0.00 | 0.00 | 71 | 1006.6 |
| 20260504040026 | 8 | 298 | 0.0 | 0.0 | 0.00 | 0.00 | 0.00 | 72 | 1006.7 |
| 20260504034533 | 9 | 298 | 0.0 | 0.0 | 0.00 | 0.00 | 0.00 | 69 | 1006.8 |
| 20260504033031 | 9 | 298 | 0.0 | 0.0 | 0.00 | 0.00 | 0.00 | 68 | 1006.9 |
| 20260504031522 | 10 | 298 | 0.0 | 0.0 | 0.00 | 0.00 | 0.00 | 65 | 1007.0 |
| 20260504030023 | 11 | 298 | 0.0 | 0.0 | 0.00 | 0.00 | 0.00 | 61 | 1007.0 |
| 20260504024522 | 12 | 298 | 0.0 | 0.0 | 0.00 | 0.00 | 0.00 | 56 | 1007.0 |
| 20260504023020 | 13 | 298 | 0.0 | 0.0 | 0.00 | 0.00 | 0.00 | 53 | 1006.9 |
| 20260504021525 | 13 | 298 | 0.0 | 1.6 | 0.00 | 0.00 | 0.00 | 51 | 1006.7 |
| 20260504020018 | 13 | 298 | 0.0 | 0.0 | 0.00 | 0.00 | 0.00 | 50 | 1006.7 |
| 20260504014519 | 15 | 298 | 0.0 | 0.0 | 0.00 | 0.00 | 0.00 | 46 | 1006.8 |
| 20260504013027 | 16 | 298 | 0.0 | 0.0 | 0.00 | 0.00 | 0.00 | 43 | 1006.5 |
| 20260504011517 | 18 | 298 | 0.0 | 1.6 | 0.00 | 0.00 | 0.00 | 40 | 1006.3 |
| 20260504010016 | 20 | 298 | 0.0 | 1.6 | 0.00 | 0.00 | 0.00 | 37 | 1006.2 |
| 20260504004515 | 21 | 298 | 0.0 | 6.4 | 0.00 | 0.00 | 0.00 | 35 | 1006.2 |
| 20260504003013 | 21 | 290 | 1.6 | 9.7 | 0.00 | 0.00 | 0.00 | 32 | 1006.1 |
| 20260504001513 | 22 | 301 | 3.2 | 11.3 | 0.00 | 0.00 | 0.00 | 31 | 1006.1 |
| 20260504000013 | 22 | 293 | 3.2 | 11.3 | 0.00 | 0.00 | 0.00 | 32 | 1006.1 |
| 20260503234511 | 22 | 308 | 6.4 | 14.5 | 0.00 | 0.00 | 0.00 | 30 | 1005.9 |
| 20260503233010 | 22 | 5 | 4.8 | 19.3 | 0.00 | 0.00 | 0.00 | 29 | 1005.9 |
| 20260503231509 | 23 | 282 | 4.8 | 14.5 | 0.00 | 0.00 | 0.00 | 30 | 1005.8 |
| 20260503230012 | 23 | 26 | 4.8 | 17.7 | 0.00 | 0.00 | 0.00 | 27 | 1005.9 |
| 20260503224507 | 23 | 306 | 6.4 | 24.1 | 0.00 | 0.00 | 0.00 | 28 | 1005.8 |
| 20260503223006 | 23 | 34 | 12.9 | 20.9 | 0.00 | 0.00 | 0.00 | 28 | 1005.8 |
| 20260503221504 | 23 | 297 | 8.0 | 22.5 | 0.00 | 0.00 | 0.00 | 27 | 1005.7 |
| 20260503220006 | 23 | 19 | 6.4 | 19.3 | 0.00 | 0.00 | 0.00 | 30 | 1005.7 |
| 20260503214502 | 23 | 121 | 8.0 | 20.9 | 0.00 | 0.00 | 0.00 | 33 | 1005.8 |
| 20260503213002 | 23 | 255 | 6.4 | 20.9 | 0.00 | 0.00 | 0.00 | 31 | 1005.6 |
| 20260503211610 | 23 | 310 | 9.7 | 20.9 | 0.00 | 0.00 | 0.00 | 31 | 1005.7 |
| 20260503210059 | 23 | 300 | 8.0 | 20.9 | 0.00 | 0.00 | 0.00 | 32 | 1005.6 |
| 20260503204602 | 23 | 304 | 6.4 | 19.3 | 0.00 | 0.00 | 0.00 | 35 | 1005.8 |
| 20260503203057 | 23 | 26 | 8.0 | 24.1 | 0.00 | 0.00 | 0.00 | 33 | 1005.7 |
| 20260503201558 | 23 | 342 | 8.0 | 22.5 | 0.00 | 0.00 | 0.00 | 35 | 1005.8 |
| 20260503200056 | 23 | 321 | 6.4 | 20.9 | 0.00 | 0.00 | 0.00 | 34 | 1006.0 |
| 20260503194555 | 23 | 240 | 6.4 | 20.9 | 0.00 | 0.00 | 0.00 | 36 | 1005.7 |
| 20260503193054 | 23 | 343 | 12.9 | 24.1 | 0.00 | 0.00 | 0.00 | 36 | 1005.9 |
| 20260503191549 | 23 | 77 | 8.0 | 17.7 | 0.00 | 0.00 | 0.00 | 38 | 1006.1 |
| 20260503190051 | 23 | 274 | 6.4 | 14.5 | 0.00 | 0.00 | 0.00 | 38 | 1006.2 |
| 20260503184545 | 22 | 337 | 3.2 | 19.3 | 0.00 | 0.00 | 0.00 | 40 | 1006.3 |
| 20260503183043 | 22 | 287 | 6.4 | 14.5 | 0.00 | 0.00 | 0.00 | 39 | 1006.3 |
| 20260503181613 | 22 | 229 | 4.8 | 12.9 | 0.00 | 0.00 | 0.00 | 43 | 1006.7 |
| 20260503180040 | 21 | 315 | 3.2 | 12.9 | 0.00 | 0.00 | 0.00 | 43 | 1006.9 |
| 20260503174533 | 21 | 287 | 6.4 | 20.9 | 0.00 | 0.00 | 0.00 | 44 | 1007.1 |
| 20260503173043 | 20 | 284 | 1.6 | 16.1 | 0.00 | 0.00 | 0.00 | 48 | 1007.2 |
| 20260503171525 | 20 | 280 | 3.2 | 12.9 | 0.00 | 0.00 | 0.00 | 48 | 1007.5 |
| 20260503150105 | 15 | 203 | 9.7 | 22.5 | 0.00 | 0.00 | 0.00 | 50 | 1008.8 |
| 20260503100106 | 10 | 136 | 0.0 | 1.6 | 0.00 | 0.00 | 0.00 | 59 | 1013.4 |
| 20260503081548 | 10 | 137 | 0.0 | 1.6 | 0.00 | 0.00 | 0.00 | 63 | 1014.3 |
| 20260503071538 | 11 | 54 | 4.8 | 12.9 | 0.00 | 0.00 | 0.00 | 52 | 1014.2 |